Location: Marse
(42.1502°N, 110.9866°W)
Time: 07:35:56
(UTC+00:00)

CUBESAT XI-V - Visible Passes

Search period start: 25 June 2022 00:00
Search period end: 05 July 2022 00:00
Orbit: 666 x 692 km, 98.1° (Epoch: 24 June)

Date Brightness Start Highest point End Pass type
(mag) Time Alt. Az. Time Alt. Az. Time Alt. Az.
25 Jun ? 07:36:11 10° ENE 07:37:35 11° ENE 07:38:59 10° NE visible
25 Jun ? 09:12:32 40° S 09:14:11 84° WSW 09:18:49 10° NNW visible
26 Jun ? 08:10:05 15° ESE 08:12:41 24° ENE 08:16:22 10° NNE visible
26 Jun ? 09:48:28 30° SW 09:49:47 36° W 09:54:02 10° NNW visible
27 Jun ? 08:46:01 30° SE 08:47:59 52° ENE 08:52:28 10° N visible
27 Jun ? 10:24:25 15° WSW 10:25:34 16° W 10:28:22 10° NW visible
28 Jun ? 07:44:25 10° E 07:46:44 14° ENE 07:49:03 10° NNE visible
28 Jun ? 09:21:59 41° S 09:23:28 67° W 09:28:03 10° NNW visible
29 Jun ? 08:19:31 19° ESE 08:21:53 29° ENE 08:25:50 10° N visible
29 Jun ? 09:57:55 25° WSW 09:59:06 29° W 10:03:06 10° NW visible
30 Jun ? 08:55:28 36° SE 08:57:13 65° ENE 09:01:47 10° N visible
30 Jun ? 10:33:52 12° WSW 10:34:56 13° W 10:36:55 10° WNW visible
01 Jul ? 07:53:02 10° ESE 07:55:53 17° ENE 07:58:47 10° NNE visible
01 Jul ? 09:31:26 40° SSW 09:32:44 53° W 09:37:15 10° NNW visible
02 Jul ? 08:28:59 23° ESE 08:31:05 35° ENE 08:35:15 10° N visible
02 Jul ? 10:07:23 21° WSW 10:08:25 23° W 10:12:06 10° NW visible
03 Jul ? 09:04:56 42° SSE 09:06:27 81° ENE 09:11:03 10° N visible
04 Jul ? 08:02:29 13° ESE 08:05:02 20° ENE 08:08:22 10° NNE visible
04 Jul ? 09:40:53 36° SW 09:42:00 42° W 09:46:23 10° NNW visible
